owner,sensor,date,latitude,longitude,vertical_datum,mass_concentration_of_oxygen_in_sea_water,qcFlag 
DISL,ioos:station:DISL:KATA:1,2017-11-01T00:30:00Z,30.2583,-88.2131,4.4,6.56,1111122 
DISL,ioos:station:DISL:KATA:1,2017-11-01T01:30:00Z,30.2583,-88.2131,4.4,6.56,1111122 
DISL,ioos:station:DISL:KATA:1,2017-11-01T02:30:00Z,30.2583,-88.2131,4.4,6.56,1111122 
DISL,ioos:station:DISL:KATA:1,2017-11-01T03:30:00Z,30.2583,-88.2131,4.4,6.56,1111122 
DISL,ioos:station:DISL:KATA:1,2017-11-01T04:30:00Z,30.2583,-88.2131,4.4,6.56,1111122 
DISL,ioos:station:DISL:KATA:1,2017-11-01T05:30:00Z,30.2583,-88.2131,4.4,6.56,1111122 
DISL,ioos:station:DISL:KATA:1,2017-11-01T06:30:00Z,30.2583,-88.2131,4.4,6.56,1111122 
DISL,ioos:station:DISL:KATA:1,2017-11-01T07:30:00Z,30.2583,-88.2131,4.4,6.56,1111122 
DISL,ioos:station:DISL:KATA:1,2017-11-01T08:30:00Z,30.2583,-88.2131,4.4,6.56,1111122 
DISL,ioos:station:DISL:KATA:1,2017-11-01T09:30:00Z,30.2583,-88.2131,4.4,6.56,1111122 
DISL,ioos:station:DISL:KATA:1,2017-11-01T10:30:00Z,30.2583,-88.2131,4.4,6.56,1111122 
DISL,ioos:station:DISL:KATA:1,2017-11-01T11:30:00Z,30.2583,-88.2131,4.4,6.56,1111122 
DISL,ioos:station:DISL:KATA:1,2017-11-01T12:30:00Z,30.2583,-88.2131,4.4,6.56,1111122 
DISL,ioos:station:DISL:KATA:1,2017-11-01T13:30:00Z,30.2583,-88.2131,4.4,6.56,1111122 
DISL,ioos:station:DISL:KATA:1,2017-11-01T14:30:00Z,30.2583,-88.2131,4.4,6.56,1111122 
DISL,ioos:station:DISL:KATA:1,2017-11-01T15:30:00Z,30.2583,-88.2131,4.4,6.56,1111122 
DISL,ioos:station:DISL:KATA:1,2017-11-01T16:30:00Z,30.2583,-88.2131,4.4,6.56,1111122 
DISL,ioos:station:DISL:KATA:1,2017-11-01T17:30:00Z,30.2583,-88.2131,4.4,6.56,1111122 
DISL,ioos:station:DISL:KATA:1,2017-11-01T18:30:00Z,30.2583,-88.2131,4.4,6.56,1111122 
DISL,ioos:station:DISL:KATA:1,2017-11-01T19:30:00Z,30.2583,-88.2131,4.4,6.56,1111122 
DISL,ioos:station:DISL:KATA:1,2017-11-01T20:30:00Z,30.2583,-88.2131,4.4,6.56,1111122 
DISL,ioos:station:DISL:KATA:1,2017-11-01T21:30:00Z,30.2583,-88.2131,4.4,6.56,1111122 
DISL,ioos:station:DISL:KATA:1,2017-11-01T22:30:00Z,30.2583,-88.2131,4.4,6.56,1111122 
DISL,ioos:station:DISL:KATA:1,2017-11-01T23:30:00Z,30.2583,-88.2131,4.4,6.56,1111122 
DISL,ioos:station:DISL:KATA:1,2017-11-02T00:30:00Z,30.2583,-88.2131,4.4,6.56,1111122 
DISL,ioos:station:DISL:KATA:1,2017-11-02T01:30:00Z,30.2583,-88.2131,4.4,6.56,1111122 
DISL,ioos:station:DISL:KATA:1,2017-11-02T02:30:00Z,30.2583,-88.2131,4.4,6.56,1111122 
DISL,ioos:station:DISL:KATA:1,2017-11-02T03:30:00Z,30.2583,-88.2131,4.4,6.56,1111122 
DISL,ioos:station:DISL:KATA:1,2017-11-02T04:30:00Z,30.2583,-88.2131,4.4,6.56,1111122 
DISL,ioos:station:DISL:KATA:1,2017-11-02T05:30:00Z,30.2583,-88.2131,4.4,6.56,1111122 
DISL,ioos:station:DISL:KATA:1,2017-11-02T06:30:00Z,30.2583,-88.2131,4.4,6.56,1111122 
DISL,ioos:station:DISL:KATA:1,2017-11-02T07:30:00Z,30.2583,-88.2131,4.4,6.56,1111122 
DISL,ioos:station:DISL:KATA:1,2017-11-02T08:30:00Z,30.2583,-88.2131,4.4,6.56,1111122 
DISL,ioos:station:DISL:KATA:1,2017-11-02T09:30:00Z,30.2583,-88.2131,4.4,6.56,1111122 
DISL,ioos:station:DISL:KATA:1,2017-11-02T10:30:00Z,30.2583,-88.2131,4.4,6.56,1111122 
DISL,ioos:station:DISL:KATA:1,2017-11-02T11:30:00Z,30.2583,-88.2131,4.4,6.56,1111122 
DISL,ioos:station:DISL:KATA:1,2017-11-02T12:30:00Z,30.2583,-88.2131,4.4,6.56,1111122 
DISL,ioos:station:DISL:KATA:1,2017-11-02T13:30:00Z,30.2583,-88.2131,4.4,6.56,1111122 
DISL,ioos:station:DISL:KATA:1,2017-11-02T14:30:00Z,30.2583,-88.2131,4.4,6.56,1111122 
DISL,ioos:station:DISL:KATA:1,2017-11-02T15:30:00Z,30.2583,-88.2131,4.4,6.56,1111122 
DISL,ioos:station:DISL:KATA:1,2017-11-02T16:30:00Z,30.2583,-88.2131,4.4,6.56,1111122 
DISL,ioos:station:DISL:KATA:1,2017-11-02T17:30:00Z,30.2583,-88.2131,4.4,6.56,1111122 
DISL,ioos:station:DISL:KATA:1,2017-11-02T18:30:00Z,30.2583,-88.2131,4.4,6.56,1111122 
DISL,ioos:station:DISL:KATA:1,2017-11-02T19:30:00Z,30.2583,-88.2131,4.4,6.56,1111122 
DISL,ioos:station:DISL:KATA:1,2017-11-02T20:30:00Z,30.2583,-88.2131,4.4,6.56,1111122 
DISL,ioos:station:DISL:KATA:1,2017-11-02T21:30:00Z,30.2583,-88.2131,4.4,6.56,1111122 
DISL,ioos:station:DISL:KATA:1,2017-11-02T22:30:00Z,30.2583,-88.2131,4.4,6.56,1111122 
DISL,ioos:station:DISL:KATA:1,2017-11-02T23:30:00Z,30.2583,-88.2131,4.4,6.56,1111122 
DISL,ioos:station:DISL:KATA:1,2017-11-03T00:30:00Z,30.2583,-88.2131,4.4,6.56,1111122 
DISL,ioos:station:DISL:KATA:1,2017-11-03T01:30:00Z,30.2583,-88.2131,4.4,6.56,1111122 
DISL,ioos:station:DISL:KATA:1,2017-11-03T02:30:00Z,30.2583,-88.2131,4.4,6.56,1111122 
DISL,ioos:station:DISL:KATA:1,2017-11-03T03:30:00Z,30.2583,-88.2131,4.4,6.56,1111122 
DISL,ioos:station:DISL:KATA:1,2017-11-03T04:30:00Z,30.2583,-88.2131,4.4,6.56,1111122 
DISL,ioos:station:DISL:KATA:1,2017-11-03T05:30:00Z,30.2583,-88.2131,4.4,6.56,1111122 
DISL,ioos:station:DISL:KATA:1,2017-11-03T06:30:00Z,30.2583,-88.2131,4.4,6.56,1111122 
DISL,ioos:station:DISL:KATA:1,2017-11-03T07:30:00Z,30.2583,-88.2131,4.4,6.56,1111122 
DISL,ioos:station:DISL:KATA:1,2017-11-03T08:30:00Z,30.2583,-88.2131,4.4,6.56,1111122 
DISL,ioos:station:DISL:KATA:1,2017-11-03T09:30:00Z,30.2583,-88.2131,4.4,6.56,1111122 
DISL,ioos:station:DISL:KATA:1,2017-11-03T10:30:00Z,30.2583,-88.2131,4.4,6.56,1111122 
DISL,ioos:station:DISL:KATA:1,2017-11-03T11:30:00Z,30.2583,-88.2131,4.4,6.56,1111122 
DISL,ioos:station:DISL:KATA:1,2017-11-03T12:30:00Z,30.2583,-88.2131,4.4,6.56,1111122 
DISL,ioos:station:DISL:KATA:1,2017-11-03T13:30:00Z,30.2583,-88.2131,4.4,6.56,1111122 
DISL,ioos:station:DISL:KATA:1,2017-11-03T14:30:00Z,30.2583,-88.2131,4.4,6.56,1111122 
DISL,ioos:station:DISL:KATA:1,2017-11-03T15:30:00Z,30.2583,-88.2131,4.4,6.56,1111122 
DISL,ioos:station:DISL:KATA:1,2017-11-03T16:30:00Z,30.2583,-88.2131,4.4,6.56,1111122 
DISL,ioos:station:DISL:KATA:1,2017-11-03T17:30:00Z,30.2583,-88.2131,4.4,6.56,1111122 
DISL,ioos:station:DISL:KATA:1,2017-11-03T18:30:00Z,30.2583,-88.2131,4.4,6.56,1111122 
DISL,ioos:station:DISL:KATA:1,2017-11-03T19:30:00Z,30.2583,-88.2131,4.4,6.56,1111122 
DISL,ioos:station:DISL:KATA:1,2017-11-03T20:30:00Z,30.2583,-88.2131,4.4,6.56,1111122 
DISL,ioos:station:DISL:KATA:1,2017-11-03T21:30:00Z,30.2583,-88.2131,4.4,6.56,1111122 
DISL,ioos:station:DISL:KATA:1,2017-11-03T22:30:00Z,30.2583,-88.2131,4.4,6.56,1111122 
DISL,ioos:station:DISL:KATA:1,2017-11-03T23:30:00Z,30.2583,-88.2131,4.4,6.56,1111122 
DISL,ioos:station:DISL:KATA:1,2017-11-04T00:30:00Z,30.2583,-88.2131,4.4,6.56,1111122 
DISL,ioos:station:DISL:KATA:1,2017-11-04T01:30:00Z,30.2583,-88.2131,4.4,6.56,1111122 
DISL,ioos:station:DISL:KATA:1,2017-11-04T02:30:00Z,30.2583,-88.2131,4.4,6.56,1111122 
DISL,ioos:station:DISL:KATA:1,2017-11-04T03:30:00Z,30.2583,-88.2131,4.4,6.56,1111122 
DISL,ioos:station:DISL:KATA:1,2017-11-04T04:30:00Z,30.2583,-88.2131,4.4,6.56,1111122 
DISL,ioos:station:DISL:KATA:1,2017-11-04T05:30:00Z,30.2583,-88.2131,4.4,6.56,1111122 
DISL,ioos:station:DISL:KATA:1,2017-11-04T06:30:00Z,30.2583,-88.2131,4.4,6.56,1111122 
DISL,ioos:station:DISL:KATA:1,2017-11-04T07:30:00Z,30.2583,-88.2131,4.4,6.56,1111122 
DISL,ioos:station:DISL:KATA:1,2017-11-04T08:30:00Z,30.2583,-88.2131,4.4,6.56,1111122 
DISL,ioos:station:DISL:KATA:1,2017-11-04T09:30:00Z,30.2583,-88.2131,4.4,6.56,1111122 
DISL,ioos:station:DISL:KATA:1,2017-11-04T10:30:00Z,30.2583,-88.2131,4.4,6.56,1111122 
DISL,ioos:station:DISL:KATA:1,2017-11-04T11:30:00Z,30.2583,-88.2131,4.4,6.56,1111122 
DISL,ioos:station:DISL:KATA:1,2017-11-04T12:30:00Z,30.2583,-88.2131,4.4,6.56,1111122 
DISL,ioos:station:DISL:KATA:1,2017-11-04T13:30:00Z,30.2583,-88.2131,4.4,6.56,1111122 
DISL,ioos:station:DISL:KATA:1,2017-11-04T14:30:00Z,30.2583,-88.2131,4.4,6.56,1111122 
DISL,ioos:station:DISL:KATA:1,2017-11-04T15:30:00Z,30.2583,-88.2131,4.4,6.56,1111122 
DISL,ioos:station:DISL:KATA:1,2017-11-04T16:30:00Z,30.2583,-88.2131,4.4,6.56,1111122 
DISL,ioos:station:DISL:KATA:1,2017-11-04T17:30:00Z,30.2583,-88.2131,4.4,6.56,1111122 
DISL,ioos:station:DISL:KATA:1,2017-11-04T18:30:00Z,30.2583,-88.2131,4.4,6.56,1111122 
DISL,ioos:station:DISL:KATA:1,2017-11-04T19:30:00Z,30.2583,-88.2131,4.4,6.56,1111122 
DISL,ioos:station:DISL:KATA:1,2017-11-04T20:30:00Z,30.2583,-88.2131,4.4,6.56,1111122 
DISL,ioos:station:DISL:KATA:1,2017-11-04T21:30:00Z,30.2583,-88.2131,4.4,6.56,1111122 
DISL,ioos:station:DISL:KATA:1,2017-11-04T22:30:00Z,30.2583,-88.2131,4.4,6.56,1111122 
DISL,ioos:station:DISL:KATA:1,2017-11-04T23:30:00Z,30.2583,-88.2131,4.4,6.56,1111122 
DISL,ioos:station:DISL:KATA:1,2017-11-05T00:30:00Z,30.2583,-88.2131,4.4,6.56,1111122 
DISL,ioos:station:DISL:KATA:1,2017-11-05T01:30:00Z,30.2583,-88.2131,4.4,6.56,1111122 
DISL,ioos:station:DISL:KATA:1,2017-11-05T02:30:00Z,30.2583,-88.2131,4.4,6.56,1111122 
DISL,ioos:station:DISL:KATA:1,2017-11-05T03:30:00Z,30.2583,-88.2131,4.4,6.56,1111122 
DISL,ioos:station:DISL:KATA:1,2017-11-05T04:30:00Z,30.2583,-88.2131,4.4,6.56,1111122 
DISL,ioos:station:DISL:KATA:1,2017-11-05T05:30:00Z,30.2583,-88.2131,4.4,6.56,1111122 
DISL,ioos:station:DISL:KATA:1,2017-11-05T06:30:00Z,30.2583,-88.2131,4.4,6.56,1111122 
DISL,ioos:station:DISL:KATA:1,2017-11-05T08:30:00Z,30.2583,-88.2131,4.4,6.56,1111122 
DISL,ioos:station:DISL:KATA:1,2017-11-05T09:30:00Z,30.2583,-88.2131,4.4,6.56,1111122 
DISL,ioos:station:DISL:KATA:1,2017-11-05T10:30:00Z,30.2583,-88.2131,4.4,6.56,1111122 
DISL,ioos:station:DISL:KATA:1,2017-11-05T11:30:00Z,30.2583,-88.2131,4.4,6.56,1111122 
DISL,ioos:station:DISL:KATA:1,2017-11-05T12:30:00Z,30.2583,-88.2131,4.4,6.56,1111122 
DISL,ioos:station:DISL:KATA:1,2017-11-05T13:30:00Z,30.2583,-88.2131,4.4,6.56,1111122 
DISL,ioos:station:DISL:KATA:1,2017-11-05T14:30:00Z,30.2583,-88.2131,4.4,6.56,1111122 
DISL,ioos:station:DISL:KATA:1,2017-11-05T15:30:00Z,30.2583,-88.2131,4.4,6.56,1111122 
DISL,ioos:station:DISL:KATA:1,2017-11-05T16:30:00Z,30.2583,-88.2131,4.4,6.56,1111122 
DISL,ioos:station:DISL:KATA:1,2017-11-05T17:30:00Z,30.2583,-88.2131,4.4,6.56,1111122 
DISL,ioos:station:DISL:KATA:1,2017-11-05T18:30:00Z,30.2583,-88.2131,4.4,6.56,1111122 
DISL,ioos:station:DISL:KATA:1,2017-11-05T19:30:00Z,30.2583,-88.2131,4.4,6.56,1111122 
DISL,ioos:station:DISL:KATA:1,2017-11-05T20:30:00Z,30.2583,-88.2131,4.4,6.56,1111122 
DISL,ioos:station:DISL:KATA:1,2017-11-05T21:30:00Z,30.2583,-88.2131,4.4,6.56,1111122 
DISL,ioos:station:DISL:KATA:1,2017-11-05T22:30:00Z,30.2583,-88.2131,4.4,6.56,1111122 
DISL,ioos:station:DISL:KATA:1,2017-11-05T23:30:00Z,30.2583,-88.2131,4.4,6.56,1111122 
DISL,ioos:station:DISL:KATA:1,2017-11-06T00:30:00Z,30.2583,-88.2131,4.4,6.56,1111122 
DISL,ioos:station:DISL:KATA:1,2017-11-06T01:30:00Z,30.2583,-88.2131,4.4,6.56,1111122 
DISL,ioos:station:DISL:KATA:1,2017-11-06T02:30:00Z,30.2583,-88.2131,4.4,6.56,1111122 
DISL,ioos:station:DISL:KATA:1,2017-11-06T03:30:00Z,30.2583,-88.2131,4.4,6.56,1111122 
DISL,ioos:station:DISL:KATA:1,2017-11-06T04:30:00Z,30.2583,-88.2131,4.4,6.56,1111122 
DISL,ioos:station:DISL:KATA:1,2017-11-06T05:30:00Z,30.2583,-88.2131,4.4,6.56,1111122 
DISL,ioos:station:DISL:KATA:1,2017-11-06T06:30:00Z,30.2583,-88.2131,4.4,6.56,1111122 
DISL,ioos:station:DISL:KATA:1,2017-11-06T07:30:00Z,30.2583,-88.2131,4.4,6.56,1111122 
DISL,ioos:station:DISL:KATA:1,2017-11-06T08:30:00Z,30.2583,-88.2131,4.4,6.56,1111122 
DISL,ioos:station:DISL:KATA:1,2017-11-06T09:30:00Z,30.2583,-88.2131,4.4,6.56,1111122 
DISL,ioos:station:DISL:KATA:1,2017-11-06T10:30:00Z,30.2583,-88.2131,4.4,6.56,1111122 
DISL,ioos:station:DISL:KATA:1,2017-11-06T11:30:00Z,30.2583,-88.2131,4.4,6.56,1111122 
DISL,ioos:station:DISL:KATA:1,2017-11-06T12:30:00Z,30.2583,-88.2131,4.4,6.56,1111122 
DISL,ioos:station:DISL:KATA:1,2017-11-06T13:30:00Z,30.2583,-88.2131,4.4,6.56,1111122 
DISL,ioos:station:DISL:KATA:1,2017-11-06T14:30:00Z,30.2583,-88.2131,4.4,6.56,1111122 
DISL,ioos:station:DISL:KATA:1,2017-11-06T15:30:00Z,30.2583,-88.2131,4.4,6.56,1111122 
DISL,ioos:station:DISL:KATA:1,2017-11-06T16:30:00Z,30.2583,-88.2131,4.4,6.56,1111122 
DISL,ioos:station:DISL:KATA:1,2017-11-06T17:30:00Z,30.2583,-88.2131,4.4,6.56,1111122 
DISL,ioos:station:DISL:KATA:1,2017-11-06T18:30:00Z,30.2583,-88.2131,4.4,6.56,1111122 
DISL,ioos:station:DISL:KATA:1,2017-11-06T19:30:00Z,30.2583,-88.2131,4.4,6.56,1111122 
DISL,ioos:station:DISL:KATA:1,2017-11-06T20:30:00Z,30.2583,-88.2131,4.4,6.56,1111122 
DISL,ioos:station:DISL:KATA:1,2017-11-06T21:30:00Z,30.2583,-88.2131,4.4,6.56,1111122 
DISL,ioos:station:DISL:KATA:1,2017-11-06T22:30:00Z,30.2583,-88.2131,4.4,6.56,1111122 
DISL,ioos:station:DISL:KATA:1,2017-11-06T23:30:00Z,30.2583,-88.2131,4.4,6.56,1111122 
DISL,ioos:station:DISL:KATA:1,2017-11-07T00:30:00Z,30.2583,-88.2131,4.4,6.56,1111122 
DISL,ioos:station:DISL:KATA:1,2017-11-07T01:30:00Z,30.2583,-88.2131,4.4,6.56,1111122 
DISL,ioos:station:DISL:KATA:1,2017-11-07T02:30:00Z,30.2583,-88.2131,4.4,6.56,1111122 
DISL,ioos:station:DISL:KATA:1,2017-11-07T03:30:00Z,30.2583,-88.2131,4.4,6.56,1111122 
DISL,ioos:station:DISL:KATA:1,2017-11-07T04:30:00Z,30.2583,-88.2131,4.4,6.56,1111122 
DISL,ioos:station:DISL:KATA:1,2017-11-07T05:30:00Z,30.2583,-88.2131,4.4,6.56,1111122 
DISL,ioos:station:DISL:KATA:1,2017-11-07T06:00:00Z,30.2583,-88.2131,4.4,6.56,1111122 
DISL,ioos:station:DISL:KATA:1,2017-11-07T07:30:00Z,30.2583,-88.2131,4.4,6.56,1111122 
DISL,ioos:station:DISL:KATA:1,2017-11-07T08:00:00Z,30.2583,-88.2131,4.4,6.56,1111122 
DISL,ioos:station:DISL:KATA:1,2017-11-07T09:30:00Z,30.2583,-88.2131,4.4,6.56,1111122 
DISL,ioos:station:DISL:KATA:1,2017-11-07T10:30:00Z,30.2583,-88.2131,4.4,6.56,1111122 
DISL,ioos:station:DISL:KATA:1,2017-11-07T11:30:00Z,30.2583,-88.2131,4.4,6.56,1111122 
DISL,ioos:station:DISL:KATA:1,2017-11-07T12:30:00Z,30.2583,-88.2131,4.4,6.56,1111122 
DISL,ioos:station:DISL:KATA:1,2017-11-07T13:00:00Z,30.2583,-88.2131,4.4,6.56,1111122 
DISL,ioos:station:DISL:KATA:1,2017-11-07T14:30:00Z,30.2583,-88.2131,4.4,6.56,1111122 
DISL,ioos:station:DISL:KATA:1,2017-11-07T15:30:00Z,30.2583,-88.2131,4.4,6.56,1111122 
DISL,ioos:station:DISL:KATA:1,2017-11-07T16:30:00Z,30.2583,-88.2131,4.4,6.56,1111122 
DISL,ioos:station:DISL:KATA:1,2017-11-07T17:30:00Z,30.2583,-88.2131,3.823,5.97,1111122 
DISL,ioos:station:DISL:KATA:1,2017-11-07T18:30:00Z,30.2583,-88.2131,3.856,6.48,1111122 
DISL,ioos:station:DISL:KATA:1,2017-11-07T19:30:00Z,30.2583,-88.2131,3.928,7.01,1111122 
DISL,ioos:station:DISL:KATA:1,2017-11-07T20:30:00Z,30.2583,-88.2131,3.995,6.98,1111122 
DISL,ioos:station:DISL:KATA:1,2017-11-07T21:30:00Z,30.2583,-88.2131,4.072,7.02,1111122 
DISL,ioos:station:DISL:KATA:1,2017-11-07T22:30:00Z,30.2583,-88.2131,4.153,7.17,1111122 
DISL,ioos:station:DISL:KATA:1,2017-11-07T23:30:00Z,30.2583,-88.2131,4.217,7.22,1111122 
DISL,ioos:station:DISL:KATA:1,2017-11-08T00:30:00Z,30.2583,-88.2131,4.268,7.3,1111122 
DISL,ioos:station:DISL:KATA:1,2017-11-08T01:30:00Z,30.2583,-88.2131,4.317,7.36,1111122 
DISL,ioos:station:DISL:KATA:1,2017-11-08T02:30:00Z,30.2583,-88.2131,4.379,7.52,1111122 
DISL,ioos:station:DISL:KATA:1,2017-11-08T03:30:00Z,30.2583,-88.2131,4.449,7.46,1111122 
DISL,ioos:station:DISL:KATA:1,2017-11-08T05:30:00Z,30.2583,-88.2131,4.491,7.14,1111122 
DISL,ioos:station:DISL:KATA:1,2017-11-08T06:30:00Z,30.2583,-88.2131,4.445,7.14,1111122 
DISL,ioos:station:DISL:KATA:1,2017-11-08T07:30:00Z,30.2583,-88.2131,4.392,6.77,1111122 
DISL,ioos:station:DISL:KATA:1,2017-11-08T08:30:00Z,30.2583,-88.2131,4.339,6.99,1111122 
DISL,ioos:station:DISL:KATA:1,2017-11-08T09:30:00Z,30.2583,-88.2131,4.285,7.14,1111122 
DISL,ioos:station:DISL:KATA:1,2017-11-08T10:30:00Z,30.2583,-88.2131,4.202,7.05,1111122 
DISL,ioos:station:DISL:KATA:1,2017-11-08T11:30:00Z,30.2583,-88.2131,4.097,7.02,1111122 
DISL,ioos:station:DISL:KATA:1,2017-11-08T12:30:00Z,30.2583,-88.2131,3.982,6.98,1111122 
DISL,ioos:station:DISL:KATA:1,2017-11-08T13:30:00Z,30.2583,-88.2131,3.882,7.21,1111122 
DISL,ioos:station:DISL:KATA:1,2017-11-08T14:30:00Z,30.2583,-88.2131,3.802,7.12,1111122 
DISL,ioos:station:DISL:KATA:1,2017-11-08T15:30:00Z,30.2583,-88.2131,3.748,7.02,1111122 
DISL,ioos:station:DISL:KATA:1,2017-11-08T16:30:00Z,30.2583,-88.2131,3.747,6.92,1111122 
DISL,ioos:station:DISL:KATA:1,2017-11-08T17:30:00Z,30.2583,-88.2131,3.77,6.57,1111122 
DISL,ioos:station:DISL:KATA:1,2017-11-08T18:30:00Z,30.2583,-88.2131,3.796,6.42,1111122 
DISL,ioos:station:DISL:KATA:1,2017-11-08T19:30:00Z,30.2583,-88.2131,3.851,5.88,1111122 
DISL,ioos:station:DISL:KATA:1,2017-11-08T20:30:00Z,30.2583,-88.2131,3.935,6.44,1111122 
DISL,ioos:station:DISL:KATA:1,2017-11-08T21:30:00Z,30.2583,-88.2131,3.994,6.9,1111122 
DISL,ioos:station:DISL:KATA:1,2017-11-08T22:30:00Z,30.2583,-88.2131,4.036,6.91,1111122 
DISL,ioos:station:DISL:KATA:1,2017-11-08T23:30:00Z,30.2583,-88.2131,4.074,6.89,1111122 
DISL,ioos:station:DISL:KATA:1,2017-11-09T00:30:00Z,30.2583,-88.2131,4.087,7.05,1111122 
DISL,ioos:station:DISL:KATA:1,2017-11-09T01:30:00Z,30.2583,-88.2131,4.152,6.98,1111122 
DISL,ioos:station:DISL:KATA:1,2017-11-09T02:30:00Z,30.2583,-88.2131,4.23,7.07,1111122 
DISL,ioos:station:DISL:KATA:1,2017-11-09T03:30:00Z,30.2583,-88.2131,4.312,7.35,1111122 
DISL,ioos:station:DISL:KATA:1,2017-11-09T04:00:00Z,30.2583,-88.2131,4.351,7.36,1111122 
DISL,ioos:station:DISL:KATA:1,2017-11-09T05:30:00Z,30.2583,-88.2131,4.434,7.23,1111122 
DISL,ioos:station:DISL:KATA:1,2017-11-09T06:00:00Z,30.2583,-88.2131,4.433,7.18,1111122 
DISL,ioos:station:DISL:KATA:1,2017-11-09T07:30:00Z,30.2583,-88.2131,4.37,6.99,1111122 
DISL,ioos:station:DISL:KATA:1,2017-11-09T08:30:00Z,30.2583,-88.2131,4.325,6.66,1111122 
DISL,ioos:station:DISL:KATA:1,2017-11-09T09:30:00Z,30.2583,-88.2131,4.295,6.59,1111122 
DISL,ioos:station:DISL:KATA:1,2017-11-09T10:30:00Z,30.2583,-88.2131,4.221,6.94,1111122 
DISL,ioos:station:DISL:KATA:1,2017-11-09T11:30:00Z,30.2583,-88.2131,4.155,7.04,1111122 
DISL,ioos:station:DISL:KATA:1,2017-11-09T12:30:00Z,30.2583,-88.2131,4.03,7.19,1111122 
DISL,ioos:station:DISL:KATA:1,2017-11-09T13:30:00Z,30.2583,-88.2131,3.944,7.2,1111122 
DISL,ioos:station:DISL:KATA:1,2017-11-09T14:30:00Z,30.2583,-88.2131,3.848,7.17,1111122 
DISL,ioos:station:DISL:KATA:1,2017-11-09T15:30:00Z,30.2583,-88.2131,3.754,7.0,1111122 
DISL,ioos:station:DISL:KATA:1,2017-11-09T16:30:00Z,30.2583,-88.2131,3.692,7.13,1111122 
DISL,ioos:station:DISL:KATA:1,2017-11-09T17:30:00Z,30.2583,-88.2131,3.71,7.17,1111122 
DISL,ioos:station:DISL:KATA:1,2017-11-09T18:30:00Z,30.2583,-88.2131,3.767,7.01,1111122 
DISL,ioos:station:DISL:KATA:1,2017-11-09T19:30:00Z,30.2583,-88.2131,3.814,6.91,1111122 
DISL,ioos:station:DISL:KATA:1,2017-11-09T20:30:00Z,30.2583,-88.2131,3.852,6.65,1111122 
DISL,ioos:station:DISL:KATA:1,2017-11-09T21:30:00Z,30.2583,-88.2131,3.898,6.68,1111122 
DISL,ioos:station:DISL:KATA:1,2017-11-09T22:30:00Z,30.2583,-88.2131,3.946,6.64,1111122 
DISL,ioos:station:DISL:KATA:1,2017-11-09T23:30:00Z,30.2583,-88.2131,4.018,6.79,1111122 
DISL,ioos:station:DISL:KATA:1,2017-11-10T00:30:00Z,30.2583,-88.2131,4.065,6.88,1111122 
DISL,ioos:station:DISL:KATA:1,2017-11-10T01:30:00Z,30.2583,-88.2131,4.083,7.22,1111122 
DISL,ioos:station:DISL:KATA:1,2017-11-10T02:30:00Z,30.2583,-88.2131,4.125,7.28,1111122 
DISL,ioos:station:DISL:KATA:1,2017-11-10T03:30:00Z,30.2583,-88.2131,4.188,7.25,1111122 
DISL,ioos:station:DISL:KATA:1,2017-11-10T04:30:00Z,30.2583,-88.2131,4.251,6.86,1111122 
DISL,ioos:station:DISL:KATA:1,2017-11-10T05:30:00Z,30.2583,-88.2131,4.276,6.98,1111122 
DISL,ioos:station:DISL:KATA:1,2017-11-10T06:30:00Z,30.2583,-88.2131,4.334,7.1,1111122 
DISL,ioos:station:DISL:KATA:1,2017-11-10T07:30:00Z,30.2583,-88.2131,4.356,7.03,1111122 
DISL,ioos:station:DISL:KATA:1,2017-11-10T08:30:00Z,30.2583,-88.2131,4.366,7.07,1111122 
DISL,ioos:station:DISL:KATA:1,2017-11-10T09:30:00Z,30.2583,-88.2131,4.323,6.76,1111122 
DISL,ioos:station:DISL:KATA:1,2017-11-10T10:30:00Z,30.2583,-88.2131,4.276,6.83,1111122 
DISL,ioos:station:DISL:KATA:1,2017-11-10T11:30:00Z,30.2583,-88.2131,4.219,6.79,1111122 
DISL,ioos:station:DISL:KATA:1,2017-11-10T12:30:00Z,30.2583,-88.2131,4.157,6.61,1111122 
DISL,ioos:station:DISL:KATA:1,2017-11-10T13:30:00Z,30.2583,-88.2131,4.071,6.94,1111122 
DISL,ioos:station:DISL:KATA:1,2017-11-10T14:30:00Z,30.2583,-88.2131,3.972,7.01,1111122 
DISL,ioos:station:DISL:KATA:1,2017-11-10T15:30:00Z,30.2583,-88.2131,3.895,7.22,1111122 
DISL,ioos:station:DISL:KATA:1,2017-11-10T16:30:00Z,30.2583,-88.2131,3.83,7.3,1111122 
DISL,ioos:station:DISL:KATA:1,2017-11-10T17:30:00Z,30.2583,-88.2131,3.803,6.68,1111122 
DISL,ioos:station:DISL:KATA:1,2017-11-10T18:30:00Z,30.2583,-88.2131,3.832,6.32,1111122 
DISL,ioos:station:DISL:KATA:1,2017-11-10T19:30:00Z,30.2583,-88.2131,3.876,6.3,1111122 
DISL,ioos:station:DISL:KATA:1,2017-11-10T20:30:00Z,30.2583,-88.2131,3.895,6.36,1111122 
DISL,ioos:station:DISL:KATA:1,2017-11-10T21:30:00Z,30.2583,-88.2131,3.898,6.52,1111122 
DISL,ioos:station:DISL:KATA:1,2017-11-10T22:30:00Z,30.2583,-88.2131,3.911,6.48,1111122 
DISL,ioos:station:DISL:KATA:1,2017-11-10T23:30:00Z,30.2583,-88.2131,3.95,6.57,1111122 
DISL,ioos:station:DISL:KATA:1,2017-11-11T00:30:00Z,30.2583,-88.2131,4.026,6.82,1111122 
DISL,ioos:station:DISL:KATA:1,2017-11-11T01:30:00Z,30.2583,-88.2131,4.055,7.1,1111122 
DISL,ioos:station:DISL:KATA:1,2017-11-11T02:30:00Z,30.2583,-88.2131,4.087,7.05,1111122 
DISL,ioos:station:DISL:KATA:1,2017-11-11T03:30:00Z,30.2583,-88.2131,4.129,6.93,1111122 
DISL,ioos:station:DISL:KATA:1,2017-11-11T04:30:00Z,30.2583,-88.2131,4.155,6.89,1111122 
DISL,ioos:station:DISL:KATA:1,2017-11-11T05:30:00Z,30.2583,-88.2131,4.199,6.88,1111122 
DISL,ioos:station:DISL:KATA:1,2017-11-11T06:30:00Z,30.2583,-88.2131,4.247,6.78,1111122 
DISL,ioos:station:DISL:KATA:1,2017-11-11T07:30:00Z,30.2583,-88.2131,4.27,6.54,1111122 
DISL,ioos:station:DISL:KATA:1,2017-11-11T08:30:00Z,30.2583,-88.2131,4.256,6.42,1111122 
DISL,ioos:station:DISL:KATA:1,2017-11-11T09:30:00Z,30.2583,-88.2131,4.236,6.27,1111122 
DISL,ioos:station:DISL:KATA:1,2017-11-11T10:30:00Z,30.2583,-88.2131,4.207,6.25,1111122 
DISL,ioos:station:DISL:KATA:1,2017-11-11T11:30:00Z,30.2583,-88.2131,4.17,6.3,1111122 
DISL,ioos:station:DISL:KATA:1,2017-11-11T12:30:00Z,30.2583,-88.2131,4.149,6.28,1111122 
DISL,ioos:station:DISL:KATA:1,2017-11-11T13:30:00Z,30.2583,-88.2131,4.119,6.33,1111122 
DISL,ioos:station:DISL:KATA:1,2017-11-11T14:30:00Z,30.2583,-88.2131,4.062,6.14,1111122 
DISL,ioos:station:DISL:KATA:1,2017-11-11T15:30:00Z,30.2583,-88.2131,4.013,6.26,1111122 
DISL,ioos:station:DISL:KATA:1,2017-11-11T16:30:00Z,30.2583,-88.2131,3.985,6.21,1111122 
DISL,ioos:station:DISL:KATA:1,2017-11-11T17:30:00Z,30.2583,-88.2131,3.99,6.23,1111122 
DISL,ioos:station:DISL:KATA:1,2017-11-11T18:30:00Z,30.2583,-88.2131,3.983,6.14,1111122 
DISL,ioos:station:DISL:KATA:1,2017-11-11T19:30:00Z,30.2583,-88.2131,3.993,5.88,1111122 
DISL,ioos:station:DISL:KATA:1,2017-11-11T20:30:00Z,30.2583,-88.2131,4.002,5.72,1111122 
DISL,ioos:station:DISL:KATA:1,2017-11-11T21:30:00Z,30.2583,-88.2131,4.016,6.02,1111122 
DISL,ioos:station:DISL:KATA:1,2017-11-11T22:00:00Z,30.2583,-88.2131,4.03,5.97,1111122 
DISL,ioos:station:DISL:KATA:1,2017-11-11T23:30:00Z,30.2583,-88.2131,4.093,6.14,1111122 
DISL,ioos:station:DISL:KATA:1,2017-11-12T00:30:00Z,30.2583,-88.2131,4.144,6.36,1111122 
DISL,ioos:station:DISL:KATA:1,2017-11-12T01:30:00Z,30.2583,-88.2131,4.188,6.29,1111122 
DISL,ioos:station:DISL:KATA:1,2017-11-12T02:30:00Z,30.2583,-88.2131,4.226,6.29,1111122 
DISL,ioos:station:DISL:KATA:1,2017-11-12T04:30:00Z,30.2583,-88.2131,4.279,6.51,1111122 
DISL,ioos:station:DISL:KATA:1,2017-11-12T05:30:00Z,30.2583,-88.2131,4.255,6.38,1111122 
DISL,ioos:station:DISL:KATA:1,2017-11-12T06:30:00Z,30.2583,-88.2131,4.232,6.15,1111122 
DISL,ioos:station:DISL:KATA:1,2017-11-12T07:30:00Z,30.2583,-88.2131,4.253,6.27,1111122 
DISL,ioos:station:DISL:KATA:1,2017-11-12T09:00:00Z,30.2583,-88.2131,4.253,6.39,1111122 
DISL,ioos:station:DISL:KATA:1,2017-11-12T10:30:00Z,30.2583,-88.2131,4.204,6.23,1111122 
DISL,ioos:station:DISL:KATA:1,2017-11-12T11:30:00Z,30.2583,-88.2131,4.185,6.17,1111122 
DISL,ioos:station:DISL:KATA:1,2017-11-12T13:00:00Z,30.2583,-88.2131,4.184,6.03,1111122 
DISL,ioos:station:DISL:KATA:1,2017-11-12T15:30:00Z,30.2583,-88.2131,4.09,7.33,1111122 
DISL,ioos:station:DISL:KATA:1,2017-11-12T16:30:00Z,30.2583,-88.2131,4.029,7.86,1111122 